Back to catalog

CZ-6A DEB

AlivePO
NORAD 61168·DEBRIS·🇨🇳 China

Launched Aug 6, 2024 from Taiyuan Satellite Launch Center

Loading…

Next Passes (next 24 hours)

TLE

FreshSource: Space-Track

Epoch: Sep 13, 2026, 05:45 UTC

1 61168U 24140RN  26256.23962578  .00107433  00000-0  38167-2 0  9991
2 61168  88.1434 171.8270 0025511 166.6716 193.5213 15.28282384111623

Track CZ-6A DEB in real time with AllMySat

Download on the App Store